Vertical_Velocity
-8 3 3 -0 0 1 -0 -3 -1 3 -1 -3 -1 -1 -2 -2 -4 -3 1 -3 -3 -1 -3 -1 0 -2 -1 -2 -1 -1 -3 -4 -3 -0 -2 1 0 -1 -2 8 0 -2 -1 -3
5 -5 2 -0 0 3 1 -2 -4 -2 -0 -1 -1 -2 -0 -2 -2 -3 -6 -5 -4 1 2 -2 -0 0 0 -0 -3 -4 -1 -1 -0 0 -1 -0 -3 0 1 6 10 8 2 -7
8 5 3 2 -2 1 2 -1 -0 -3 -7 1 1 0 -2 -3 -1 -2 -2 -4 -2 -2 -0 -1 -1 1 -1 -1 0 -1 -2 -1 -0 2 1 -0 -0 -1 -4 -5 -11 -2 9 14
4 -2 3 0 -1 -0 -2 -2 2 -1 -2 -5 -5 -1 3 0 3 3 2 -0 -3 -3 -0 -1 -0 1 1 -1 -3 -2 -0 0 -0 5 2 1 -1 1 -0 0 2 2 6 8
-9 -0 1 10 -2 2 8 -6 -2 2 -1 1 -2 -3 -4 1 -2 -3 -1 -0 -1 0 -3 -0 -0 -0 0 -1 -2 -3 -4 -1 1 2 5 3 2 -0 -1 2 2 3 13 6
-7 -4 -5 -5 0 -4 -1 8 10 1 3 1 -2 -3 -5 -0 -1 1 -3 -3 0 0 -1 0 -0 -1 1 2 0 0 -2 -5 -9 -6 -1 3 4 -2 2 1 1 1 3 4
-5 -8 4 7 -1 -4 -4 -0 -2 8 4 1 2 -1 -2 -3 2 -1 -1 -0 -3 -3 1 -2 -0 -3 -3 -1 -1 -0 1 -0 -4 -4 -2 -1 1 3 1 2 2 -1 -3 -1
-2 -4 -8 3 -6 -1 -3 -4 0 0 0 4 3 -1 1 -2 -4 0 -1 -3 -2 -1 -1 -0 -0 0 -1 1 1 1 0 -1 0 -0 -2 -2 -1 -1 -2 -3 -1 -0 -0 -0
-11 13 1 -5 -6 1 -5 1 3 -5 1 -3 5 2 -1 2 -2 -1 1 -0 -4 -2 0 -0 1 2 -1 -0 -1 -0 1 -0 -2 -3 -1 1 -1 -1 -2 -1 -2 -1 -3 -2
-29 83 -4 -14 -3 0 -8 -7 2 -1 1 -2 5 1 4 -0 -0 0 -3 4 5 -5 -5 -6 -3 3 1 -2 1 -0 -2 0 1 0 -0 -1 -0 0 0 0 1 1 0 -0
-43 42 -37 25 -0 3 -1 -5 3 -4 -4 5 -2 10 1 5 1 0 -0 -2 1 10 -2 -6 -0 -6 -2 0 1 1 -2 1 1 1 1 -1 -0 -0 -2 -3 -2 -1 -1 -2
-96 49 -27 31 9 3 -12 -1 -6 -3 -2 -0 6 6 1 8 2 -1 1 -4 0 -3 7 -3 0 -2 -5 -2 2 4 -2 -2 0 -1 -2 -0 -1 0 1 1 1 1 0 0
-90 26 -5 -3 10 10 -11 -5 -3 -1 -3 1 10 -3 -2 5 4 2 5 1 1 -1 -0 2 4 0 -3 -2 -3 -1 3 3 -4 -5 -2 0 -2 -3 -1 -1 -2 -1 -1 1
3 -9 6 11 -16 8 -6 2 -7 -2 9 -1 5 4 -5 5 4 2 4 -2 1 2 3 -2 1 4 -5 1 -1 -1 -1 -4 0 1 1 -1 -1 -1 -1 -3 -5 -4 -1 1
11 -9 -18 9 2 10 -1 3 -5 2 -1 2 -1 4 2 0 9 5 2 -2 -3 6 3 -2 1 1 -4 1 1 -3 2 1 0 1 -1 -1 -4 -3 1 5 0 0 1 -1
-1 -3 -7 -6 2 6 -2 3 -9 4 -1 -1 6 2 3 0 8 10 4 1 -2 9 -1 1 3 -4 -4 3 -1 0 -1 -3 0 -1 1 1 -0 -3 -4 -4 -1 -0 -1 2
-11 2 -2 -4 0 11 8 3 2 9 4 5 3 4 4 11 10 17 9 -3 -2 8 4 3 5 -3 -2 5 -1 -0 1 1 1 -2 -3 -0 1 1 1 1 -2 -3 -1 -3
-12 -3 2 -4 4 5 10 -3 -4 -1 7 5 3 2 4 1 12 8 6 8 7 9 4 -5 -2 -0 2 5 2 -1 3 2 -0 1 -0 -1 2 2 2 -0 -0 -1 -1 -0
-1 3 2 -0 1 2 3 4 3 -5 -1 2 4 4 2 4 7 9 4 3 5 7 -5 3 6 6 6 4 3 3 2 2 0 -0 2 4 -1 -2 1 1 -0 0 2 1
-7 24 2 -5 -5 -2 3 -0 3 3 3 3 6 5 -1 9 11 5 5 3 1 6 2 7 5 5 -0 2 2 5 2 2 0 1 -1 1 2 0 2 2 1 0 1 1
-5 5 6 -3 -4 -4 -0 0 2 2 4 -2 1 3 4 6 5 4 2 2 7 2 0 5 2 1 4 4 -1 1 3 3 3 2 -1 1 -1 -0 1 1 1 1 -0 1
-3 6 6 10 -5 2 -2 7 -0 2 3 5 6 -0 4 3 5 7 8 7 4 3 2 1 -0 -1 1 -4 -3 -0 1 -1 -0 1 0 4 3 0 0 2 5 3 1 0
1 -0 -4 -5 -5 2 -3 12 12 13 -2 -2 7 9 6 10 10 6 3 -1 0 5 6 8 10 9 1 4 5 3 2 3 2 1 3 3 6 5 1 4 2 4 2 2
-5 3 -4 -7 -3 5 -0 -1 6 -1 6 4 10 8 3 7 7 3 -1 -2 -1 -1 -4 1 2 -3 -1 -1 -1 -0 -0 -1 2 3 2 2 0 -2 1 2 2 3 2 3
1 2 -0 -8 -5 3 1 10 -1 -6 4 6 3 -1 1 3 0 -3 -0 -3 -3 -1 -2 2 1 0 -0 -2 -2 -1 1 2 3 4 3 1 -0 0 1 2 3 3 4 5
3 4 4 -8 -5 0 -5 2 -6 -8 -5 -2 -0 1 -1 1 -1 -6 -4 0 -1 -4 -3 -2 -1 -0 -1 -1 -2 -1 -1 -2 -0 2 2 -0 1 4 4 5 6 5 4 3
2 6 4 0 -2 -1 -1 1 -1 -3 -4 -5 -2 -3 -5 -1 -2 -3 -4 -3 -0 -2 -6 -4 -2 -1 -1 -1 -1 -4 -3 -1 1 1 2 4 5 6 4 2 1 1 -0 -1
Height
5710 5706 5701 5696 5692 5688 5686 5683 5681 5679 5676 5675 5672 5668 5666 5662 5658 5652 5645 5641 5643 5642 5640 5638 5636 5634 5632 5628 5624 5621 5618 5614 5610 5606 5603 5599 5596 5593 5590 5585 5586 5585 5590 5596
5709 5705 5700 5695 5691 5688 5684 5680 5679 5676 5673 5671 5670 5667 5664 5661 5658 5653 5648 5643 5640 5637 5634 5633 5632 5631 5629 5626 5622 5617 5612 5609 5606 5603 5599 5598 5596 5593 5591 5589 5587 5583 5586 5591
5705 5701 5698 5694 5689 5685 5682 5678 5675 5673 5671 5667 5665 5663 5662 5659 5656 5653 5649 5644 5640 5637 5633 5629 5627 5628 5627 5624 5620 5616 5611 5606 5602 5601 5598 5595 5595 5594 5592 5592 5591 5589 5592 5596
5698 5695 5693 5689 5685 5681 5678 5673 5671 5668 5666 5664 5661 5656 5655 5654 5652 5650 5647 5644 5640 5637 5634 5632 5630 5628 5625 5623 5619 5615 5609 5602 5597 5597 5597 5595 5593 5593 5593 5592 5592 5591 5593 5596
5688 5686 5687 5683 5678 5675 5673 5669 5666 5663 5661 5658 5657 5653 5648 5646 5647 5645 5643 5641 5638 5635 5633 5630 5628 5626 5623 5620 5617 5612 5607 5599 5590 5593 5595 5595 5594 5594 5593 5593 5593 5593 5594 5595
5680 5676 5676 5676 5672 5667 5664 5663 5659 5657 5654 5652 5649 5648 5644 5640 5636 5636 5637 5635 5633 5631 5629 5627 5625 5622 5620 5617 5614 5610 5606 5600 5591 5594 5595 5595 5595 5595 5593 5593 5593 5593 5594 5595
5669 5664 5667 5666 5662 5658 5655 5654 5648 5647 5647 5643 5642 5640 5640 5636 5632 5627 5626 5627 5626 5624 5623 5621 5619 5617 5615 5614 5611 5608 5606 5603 5599 5599 5598 5595 5593 5591 5591 5590 5590 5591 5591 5591
5657 5655 5657 5655 5651 5649 5645 5639 5637 5636 5634 5634 5632 5630 5628 5629 5626 5623 5619 5616 5617 5616 5615 5614 5612 5611 5609 5608 5607 5605 5604 5602 5600 5599 5597 5596 5595 5593 5591 5591 5590 5590 5590 5590
5645 5643 5646 5641 5639 5635 5631 5628 5626 5622 5621 5618 5621 5621 5617 5616 5618 5616 5613 5610 5607 5608 5607 5606 5605 5604 5603 5602 5601 5600 5599 5598 5597 5596 5595 5594 5593 5593 5592 5591 5590 5590 5589 5590
5627 5636 5628 5625 5622 5618 5616 5613 5610 5609 5609 5607 5607 5607 5606 5603 5604 5606 5605 5604 5600 5598 5598 5598 5597 5595 5595 5594 5593 5592 5592 5591 5591 5590 5589 5588 5589 5588 5587 5588 5588 5587 5587 5586
5606 5611 5605 5606 5598 5601 5598 5596 5594 5594 5593 5592 5593 5594 5592 5592 5590 5591 5593 5593 5593 5591 5587 5588 5588 5587 5586 5586 5585 5585 5584 5583 5583 5583 5582 5582 5581 5581 5580 5580 5580 5579 5579 5579
5584 5588 5579 5589 5583 5578 5579 5578 5577 5578 5576 5576 5578 5579 5577 5578 5577 5576 5578 5580 5582 5582 5580 5578 5579 5578 5578 5577 5577 5577 5576 5575 5574 5574 5573 5573 5573 5572 5572 5571 5571 5570 5570 5570
5558 5568 5563 5563 5560 5558 5555 5559 5563 5558 5560 5560 5562 5561 5562 5562 5563 5563 5564 5566 5567 5568 5569 5569 5569 5569 5568 5568 5568 5567 5567 5566 5565 5565 5565 5564 5563 5562 5562 5562 5561 5560 5559 5558
5539 5537 5539 5536 5531 5531 5533 5537 5541 5539 5543 5543 5543 5544 5545 5546 5547 5548 5550 5551 5552 5554 5556 5557 5557 5558 5558 5558 5558 5557 5556 5556 5555 5554 5553 5553 5553 5552 5551 5550 5549 5548 5547 5546
5516 5511 5508 5508 5509 5510 5511 5516 5520 5519 5522 5524 5524 5525 5527 5529 5531 5532 5534 5536 5537 5541 5544 5543 5544 5545 5545 5546 5547 5546 5546 5545 5544 5544 5543 5542 5542 5541 5540 5538 5537 5535 5533 5532
5493 5489 5491 5489 5485 5487 5492 5495 5497 5501 5504 5507 5509 5509 5509 5512 5516 5519 5520 5521 5523 5526 5527 5529 5531 5531 5532 5533 5534 5534 5534 5534 5534 5533 5532 5530 5529 5528 5527 5526 5525 5523 5521 5520
5469 5476 5476 5473 5472 5471 5474 5480 5483 5485 5488 5489 5491 5493 5494 5497 5499 5501 5502 5502 5507 5511 5512 5514 5515 5514 5515 5518 5519 5520 5520 5520 5519 5519 5519 5519 5517 5515 5514 5512 5511 5509 5508 5506
5458 5457 5457 5456 5455 5456 5459 5462 5465 5467 5469 5470 5473 5476 5477 5479 5481 5482 5484 5486 5490 5493 5493 5496 5498 5499 5501 5504 5505 5506 5507 5508 5506 5505 5504 5505 5505 5503 5501 5499 5498 5496 5494 5492
5445 5444 5443 5441 5442 5443 5444 5446 5447 5450 5451 5453 5457 5459 5461 5464 5466 5467 5469 5471 5473 5474 5477 5482 5484 5486 5487 5488 5490 5491 5492 5493 5493 5491 5491 5490 5490 5489 5488 5486 5484 5483 5480 5477
5436 5436 5432 5430 5430 5430 5432 5432 5434 5435 5437 5438 5441 5444 5446 5449 5450 5452 5454 5456 5459 5461 5465 5468 5471 5472 5471 5473 5475 5477 5477 5478 5478 5477 5477 5476 5474 5473 5472 5470 5468 5466 5464 5461
5424 5424 5423 5420 5420 5421 5423 5423 5423 5423 5424 5425 5427 5430 5434 5436 5437 5439 5441 5443 5444 5447 5451 5454 5457 5459 5460 5461 5462 5464 5464 5464 5464 5464 5462 5460 5459 5458 5456 5454 5452 5449 5447 5444
5412 5413 5410 5409 5411 5411 5413 5415 5415 5414 5413 5415 5417 5420 5422 5425 5428 5429 5431 5433 5434 5436 5439 5441 5444 5447 5448 5449 5450 5450 5450 5449 5448 5447 5446 5445 5443 5441 5439 5437 5434 5432 5430 5427
5397 5397 5399 5402 5403 5403 5403 5405 5405 5405 5405 5406 5408 5410 5414 5416 5417 5419 5421 5423 5425 5427 5429 5432 5434 5435 5436 5438 5438 5437 5436 5435 5434 5433 5432 5430 5428 5425 5422 5420 5417 5414 5411 5408
5382 5385 5386 5390 5394 5394 5394 5393 5397 5398 5398 5398 5400 5403 5405 5407 5410 5411 5413 5414 5417 5418 5420 5421 5422 5423 5425 5424 5423 5422 5422 5421 5419 5419 5417 5415 5413 5409 5406 5403 5400 5397 5394 5391
5370 5371 5372 5375 5381 5385 5386 5384 5389 5391 5393 5394 5395 5396 5399 5400 5402 5405 5407 5408 5409 5409 5410 5409 5411 5411 5410 5411 5410 5410 5409 5408 5406 5404 5403 5400 5398 5394 5391 5387 5383 5380 5376 5373
5357 5359 5361 5362 5369 5374 5377 5378 5379 5382 5384 5387 5388 5390 5392 5394 5395 5398 5399 5399 5400 5400 5400 5401 5401 5400 5400 5399 5399 5397 5396 5395 5392 5388 5387 5384 5381 5377 5373 5369 5366 5363 5361 5358
5342 5346 5349 5352 5356 5358 5364 5368 5368 5371 5374 5378 5380 5382 5384 5386 5387 5389 5390 5392 5392 5392 5392 5391 5391 5390 5390 5389 5386 5385 5383 5381 5377 5372 5368 5364 5360 5357 5354 5351 5350 5349 5348 5346